Vorticity
4 4 2 4 5 7 8 6 4 4 5 3 4 3 2 3 4 6 7 2 -7 -4 4 4 7 -1 -3 9 3 -0 -3 0 11 -3 -7 3 1 0 4 6 4 6 7 6 6 4 6 4 4 5 4 5 4 4 3 4 4 4 6 4 3 3 3 4 4 4 4 5 7 7 7 6 4 4 4 4 5 5 5 5 5 5 5 5 5 5 5 5 5 5 5 5 5 6 5 5 6
5 4 2 3 4 6 6 7 7 3 5 4 3 3 1 3 8 4 1 3 -6 -5 2 5 12 2 0 6 -6 -1 3 -1 8 6 -2 -9 -8 1 3 2 3 7 7 7 6 3 5 3 4 5 5 5 4 4 4 5 5 6 7 6 4 3 3 3 4 4 5 5 6 7 6 6 4 4 4 4 4 5 4 4 4 4 4 5 5 5 6 5 5 5 5 6 6 6 6 6 5
5 6 4 1 1 6 5 6 7 4 6 5 2 2 2 4 10 10 6 7 -3 -7 -2 2 10 10 1 -4 2 12 11 6 5 10 7 -1 2 -1 -5 1 3 5 8 6 5 4 3 4 4 5 6 6 6 5 5 6 7 10 10 8 6 5 5 3 4 4 4 5 5 6 6 6 5 4 3 4 4 4 3 4 4 4 4 4 5 5 6 6 6 6 6 6 7 7 6 6 6
2 5 9 5 0 1 5 8 5 6 6 3 4 1 2 4 6 11 13 13 4 -4 -2 3 6 5 1 5 27 25 7 6 4 4 3 5 7 -7 -8 3 3 4 7 6 5 5 4 4 5 7 7 6 6 5 6 6 7 10 10 9 7 6 5 4 4 4 5 5 4 5 6 5 5 5 3 3 3 3 3 3 4 4 4 4 4 5 5 6 7 8 8 7 7 7 7 7 7
4 1 5 9 7 1 1 7 4 5 4 3 3 1 11 9 1 4 8 8 2 1 3 5 7 2 3 3 4 -0 -3 -0 -10 -11 -1 8 5 -1 3 5 4 4 5 6 3 4 5 4 6 6 6 6 3 -0 -1 2 5 6 8 8 8 8 6 5 4 4 5 4 5 4 5 6 5 5 4 3 3 3 3 3 4 4 3 4 4 4 5 6 7 7 8 8 8 7 7 7 8
4 2 0 4 9 8 3 3 5 5 3 5 3 -0 11 4 -2 3 4 9 2 6 10 6 9 5 4 1 -8 -10 -8 -7 -7 -3 -0 5 5 3 6 4 5 5 5 5 3 4 5 5 4 5 7 4 -3 -8 -11 -4 3 2 6 7 7 9 6 5 5 4 4 4 4 4 4 5 5 5 5 3 3 3 2 3 3 4 4 3 3 4 4 5 6 7 8 8 8 7 6 7 9
2 3 1 0 4 9 10 5 3 5 3 4 5 6 4 -12 -1 21 10 3 5 9 12 11 11 8 9 4 -0 1 -1 0 5 2 -1 5 7 6 7 4 3 5 7 5 5 5 3 5 4 5 7 0 4 9 7 8 5 2 4 6 7 9 8 6 5 5 4 4 3 4 4 4 5 5 5 4 3 4 2 2 3 3 3 3 3 3 4 4 5 6 7 8 8 7 6 7 8
2 2 3 2 -1 2 8 9 6 4 4 2 4 10 2 -21 -3 38 25 -6 -2 6 10 18 13 10 14 6 0 1 8 21 19 3 -2 4 2 3 6 3 3 4 7 5 4 5 3 5 4 7 5 -0 15 25 19 12 5 4 4 6 8 8 10 7 5 6 4 4 4 4 4 4 5 4 5 5 4 4 3 3 3 3 3 3 3 3 4 4 5 5 6 7 7 7 6 6 8
1 0 2 2 1 2 1 5 10 7 4 2 5 11 2 -18 -12 16 15 0 4 1 -1 12 11 8 12 9 6 1 6 14 16 13 -0 -5 -5 -1 3 0 6 6 4 5 4 5 4 5 4 6 6 2 8 8 5 4 2 3 3 5 8 9 10 8 6 6 5 4 4 4 4 3 4 4 5 5 4 4 4 3 3 3 3 3 3 3 4 4 4 4 5 6 6 6 5 6 7
2 1 2 1 1 3 3 1 4 8 9 3 3 12 8 -3 -4 1 -1 -3 8 10 6 8 9 12 12 12 15 14 10 -6 2 22 5 -2 4 4 4 2 7 5 3 6 4 5 4 6 5 4 5 4 3 -1 -0 -0 -2 -0 0 3 6 10 10 9 8 6 5 5 4 3 3 4 3 3 4 4 4 4 4 4 3 3 3 4 3 3 3 4 5 4 4 5 5 5 5 6 7
4 4 3 2 2 2 2 2 2 2 7 9 6 8 8 -1 -9 0 8 -2 -1 13 11 2 4 13 12 10 26 30 10 -4 18 35 9 0 9 6 7 7 8 5 3 4 4 5 5 6 5 4 2 3 3 1 7 4 0 2 1 2 5 10 11 9 8 7 5 4 4 4 3 3 3 4 4 4 4 3 4 3 3 3 3 4 3 4 4 4 4 5 5 5 5 5 5 6 6
6 6 5 1 2 5 1 -0 5 2 1 7 11 7 4 2 -11 -10 4 5 5 8 1 0 3 6 6 5 23 28 8 5 17 17 6 2 2 5 10 9 6 5 5 5 5 5 5 6 4 4 2 3 2 1 14 14 8 6 0 1 4 8 10 9 8 7 6 4 4 4 3 3 3 4 3 4 3 3 3 3 4 3 4 4 4 4 3 4 4 4 5 5 6 6 6 6 6
4 3 4 5 1 2 4 2 1 3 4 0 5 11 2 1 7 5 -6 -7 12 17 4 10 11 -2 3 8 10 13 12 13 -1 -8 5 6 -2 4 12 6 3 7 8 6 5 6 4 5 4 4 3 2 3 4 15 13 4 1 -2 0 3 7 7 8 9 7 6 5 4 3 3 3 3 4 3 4 3 3 3 3 4 3 4 4 4 4 4 4 3 4 4 5 6 6 6 6 7
10 11 -1 -1 4 1 3 6 2 2 7 1 3 12 6 -3 3 10 -10 -26 4 25 9 7 6 -4 7 6 3 19 24 18 9 8 8 4 2 8 11 5 6 8 6 6 4 6 4 4 3 3 4 3 3 7 11 4 -4 -4 -0 0 -0 6 6 5 8 8 7 5 4 3 2 3 3 4 3 4 3 3 3 4 4 4 4 4 4 4 4 4 3 4 4 5 6 6 7 7 8
4 27 21 0 1 2 1 5 4 3 5 2 -0 4 13 15 7 2 -16 -26 5 23 4 8 8 -4 6 -1 -2 19 22 22 24 23 11 5 9 8 11 9 4 -0 -1 4 4 4 4 3 4 2 3 5 2 4 8 3 -4 -5 0 2 0 5 5 3 5 6 9 7 5 3 3 3 3 4 3 4 4 3 4 4 4 4 4 4 5 4 4 4 3 4 3 5 6 6 7 6 8
-8 11 31 18 6 2 -1 3 3 2 2 3 5 10 15 18 20 11 -15 -22 8 19 -7 1 17 3 2 3 2 -8 -11 12 16 10 8 9 12 2 5 8 -3 -6 1 6 5 5 5 3 3 4 3 3 1 1 7 7 1 -2 -0 2 -0 4 6 4 4 4 7 7 6 5 4 3 3 4 3 4 4 4 4 4 4 4 5 5 5 5 4 4 3 3 4 4 5 6 7 7 9
3 -7 2 10 18 14 1 -2 2 2 1 2 2 5 4 -0 12 24 10 -11 -10 3 -10 -20 -1 7 -3 -7 4 -4 -9 9 9 7 7 1 6 0 0 10 4 3 11 11 8 5 4 4 3 3 3 2 2 1 5 8 5 3 4 4 -2 1 7 5 4 4 5 6 7 6 5 4 4 4 4 4 4 4 4 4 5 4 5 6 5 5 4 4 3 3 4 4 6 6 7 8 8
11 4 -3 -1 7 18 20 12 4 1 2 3 -6 -13 -4 2 -1 2 10 8 -3 -3 2 -3 1 15 10 -1 5 8 3 1 -0 9 14 6 8 9 7 9 8 5 10 11 8 6 4 4 4 3 4 2 2 4 7 8 6 6 8 8 2 3 6 5 7 6 5 5 5 7 7 6 5 5 5 5 4 4 4 4 5 4 5 6 6 6 5 4 3 3 4 4 5 6 7 8 8
10 8 7 9 -3 -5 11 20 19 11 4 4 10 1 -8 4 5 -4 -8 2 22 18 8 11 13 14 10 10 12 10 8 1 -5 -4 4 13 9 5 7 5 3 2 8 12 6 6 6 4 5 5 5 5 6 10 11 8 7 8 9 9 4 4 6 5 6 7 7 7 6 7 8 7 6 6 6 5 5 5 5 4 4 4 5 6 6 6 5 4 3 4 4 5 5 7 7 8 10
9 7 9 12 -2 -9 -7 5 20 20 14 8 29 33 -4 -8 4 11 4 -13 5 21 10 0 4 7 0 0 4 5 8 10 11 -1 -10 1 4 1 1 0 -1 1 8 11 7 6 5 4 5 6 7 9 13 15 12 10 11 10 8 6 4 5 6 6 6 6 7 8 8 8 8 8 7 7 7 6 6 5 4 4 3 3 4 6 7 6 5 4 4 4 4 6 6 7 7 8 10
5 9 13 6 -5 3 -0 -2 5 8 18 7 14 31 8 -4 -3 3 14 1 -2 7 7 0 -5 -2 3 2 1 4 1 3 15 15 6 -7 -9 -7 -5 11 10 5 10 7 9 10 5 7 7 8 10 13 19 19 15 12 11 9 7 5 5 5 5 7 8 7 7 9 9 9 8 7 7 7 7 6 4 4 3 3 2 2 4 6 7 6 6 5 4 5 5 6 7 8 7 7 9
4 9 10 5 1 8 3 -0 3 0 10 9 2 10 8 2 -4 -5 2 7 11 5 -2 10 11 -5 4 10 -1 5 4 1 0 5 23 10 0 -5 -7 35 37 14 21 11 5 8 7 11 12 12 12 14 17 15 13 9 6 5 6 6 7 7 7 9 10 10 10 10 10 9 9 8 8 7 6 6 4 4 3 3 3 3 6 6 7 7 5 6 5 5 6 7 8 9 8 9 8
7 11 2 -1 6 13 8 -0 3 4 3 7 2 -7 2 3 -5 2 2 2 10 6 -14 -7 23 9 0 12 0 6 9 5 6 -1 10 13 17 9 -3 41 44 18 30 16 -3 2 7 10 9 11 11 11 10 9 7 4 4 4 4 7 9 10 12 14 13 12 11 10 10 10 10 9 8 7 6 5 4 4 4 4 5 6 7 7 6 7 6 7 6 6 7 7 8 8 8 9 5
13 11 -0 -6 2 11 16 8 2 7 3 4 6 -1 10 8 -2 8 1 -5 2 10 -4 -27 8 23 1 5 -1 7 11 0 14 13 6 5 10 9 5 34 32 5 8 5 1 4 5 8 7 7 6 6 5 4 4 1 3 3 4 7 8 12 13 13 11 9 9 9 9 9 10 10 8 8 6 6 5 5 6 7 8 7 7 8 7 7 7 7 7 7 8 8 9 9 7 7 5
15 13 2 -5 2 3 5 13 7 6 7 4 4 6 14 6 4 16 1 1 7 8 16 -12 -12 12 3 5 -0 4 18 4 6 16 14 7 6 9 3 21 36 16 -1 -0 9 10 6 6 6 5 2 3 3 2 2 2 4 4 6 6 9 12 9 6 6 6 7 6 7 8 8 9 9 9 7 7 8 7 8 8 8 7 7 8 7 7 7 7 8 8 8 8 8 8 7 7 8
12 12 6 -0 6 5 -4 8 10 3 10 12 9 5 6 6 9 16 -1 6 18 -4 6 9 -6 -0 -2 6 6 2 20 18 6 9 13 9 11 16 5 15 32 15 5 8 3 4 9 5 2 4 0 0 2 2 3 2 4 7 7 8 11 9 5 4 6 7 8 6 6 6 6 8 8 8 9 8 8 8 8 8 6 7 8 8 8 7 7 7 8 8 8 8 8 8 8 9 8
12 11 11 7 9 13 2 6 10 3 5 5 12 14 6 11 13 11 -6 -16 1 -2 -6 -1 -3 1 1 3 -1 -9 3 13 10 5 7 9 8 14 14 16 9 -6 11 22 9 7 8 5 2 0 1 2 2 2 3 2 4 8 7 10 11 5 4 6 7 7 7 8 6 6 6 7 7 7 8 8 7 7 7 7 7 8 9 8 7 7 7 8 8 8 8 8 9 10 9 9 9
9 7 6 2 1 6 0 -3 1 4 12 5 6 18 11 11 8 7 7 -18 -16 8 5 -6 -6 -2 -0 -1 -8 -13 -10 -2 12 9 4 6 0 6 12 8 3 5 19 15 8 11 8 10 4 -3 1 -0 3 4 1 2 4 7 7 10 10 5 6 7 6 6 6 7 6 7 7 6 8 7 7 7 6 7 7 7 7 7 8 7 5 5 6 7 8 8 9 9 7 8 10 9 8
9 8 7 5 1 4 5 1 -3 -7 5 13 16 22 14 7 2 2 12 -0 -10 3 -2 -8 8 12 5 3 -5 -8 -6 -4 8 11 8 8 1 4 8 3 1 12 24 14 14 16 6 14 4 -4 5 -2 1 5 1 4 4 5 8 9 9 6 7 7 5 6 5 6 5 5 6 6 7 6 7 7 6 6 6 7 5 4 4 3 3 3 4 7 9 8 8 10 8 10 12 7 4
16 12 11 11 10 8 10 8 5 -2 -8 0 14 20 14 8 6 2 5 7 3 2 -6 -11 0 5 2 7 6 -2 -6 -10 -3 5 6 8 9 9 10 7 -2 6 21 17 35 39 10 11 8 -3 4 0 1 4 2 6 4 4 7 7 8 6 6 6 5 6 6 6 6 5 5 5 6 6 6 6 6 5 4 4 2 2 2 1 3 2 5 9 7 5 9 13 13 10 7 5 5
22 20 14 11 14 12 12 11 9 10 0 -5 1 6 8 11 12 2 -5 3 6 3 8 14 11 3 -3 2 10 11 5 -6 -5 1 1 2 5 7 14 13 5 9 -2 -27 1 33 19 12 13 4 3 1 -0 3 4 5 5 6 5 5 6 5 5 5 5 5 6 6 6 6 4 5 5 5 6 6 6 4 3 2 0 1 1 2 3 3 7 10 4 6 11 11 9 5 3 6 8
22 24 21 13 15 13 10 14 14 14 12 4 -4 -4 1 8 15 8 -3 2 7 -1 -8 -1 6 8 11 9 6 13 14 5 3 -1 -1 6 1 1 15 15 11 15 3 -19 -22 9 39 26 0 0 5 4 1 1 6 5 6 8 4 4 5 4 4 3 6 5 4 6 6 6 5 4 6 5 5 6 5 4 2 2 1 2 2 3 4 4 7 7 4 10 13 7 8 8 5 7 8
20 21 23 18 19 19 10 9 13 17 19 9 -6 -7 2 7 12 14 12 13 19 20 5 -6 -1 5 10 9 5 15 18 7 6 1 -3 5 0 -3 1 -4 4 10 12 19 2 9 42 18 -8 7 7 4 6 3 7 7 7 9 4 3 3 2 3 2 5 5 5 5 5 6 5 4 5 5 5 4 3 3 2 2 2 2 4 5 5 5 6 7 6 10 11 7 10 13 10 8 8
25 25 26 24 23 25 21 12 9 14 16 12 4 -2 2 6 6 7 11 13 16 30 30 14 12 14 9 1 -4 4 11 6 6 6 1 1 2 2 -4 -12 -2 8 10 19 18 17 11 -17 -9 18 9 4 7 2 8 9 8 9 3 1 1 1 3 3 3 5 5 5 5 5 6 6 6 5 5 4 2 2 2 2 3 3 4 4 5 6 5 7 8 8 9 7 10 13 11 9 8
20 27 29 26 29 29 27 24 15 11 10 11 11 7 8 9 8 4 3 5 3 12 22 15 14 19 16 18 13 -0 -2 7 11 9 8 8 2 -3 -2 -2 -3 4 11 14 18 17 -2 -14 -5 3 5 10 6 2 6 9 9 9 3 -3 -1 1 2 3 3 4 5 5 5 5 6 6 6 6 4 4 3 2 2 2 3 3 4 3 4 6 6 7 7 9 12 10 11 12 9 9 9
12 23 30 20 27 34 35 41 38 31 27 23 13 7 10 8 5 7 7 9 7 7 12 6 -0 1 -2 4 16 13 6 9 15 17 19 21 10 -2 -1 3 0 4 11 8 11 11 5 13 3 -22 -12 6 7 4 4 9 9 6 5 -4 -6 -1 1 3 3 3 5 5 4 5 7 6 5 6 5 4 3 2 2 2 3 4 3 3 3 5 8 8 5 8 12 10 10 12 10 11 12
10 8 17 9 9 18 18 20 27 35 42 44 37 26 22 16 9 12 13 13 7 -1 -3 -9 -13 -11 -13 -16 -13 -5 -3 -9 -5 5 13 17 11 5 6 6 3 4 10 4 2 9 10 20 9 -25 -26 -3 9 5 1 10 10 3 5 -1 -6 -4 -3 1 1 2 6 6 5 4 6 6 5 6 5 5 4 3 3 2 3 4 2 2 3 6 9 9 7 8 11 10 11 12 11 12 13
13 3 4 6 4 4 -3 -12 -6 7 12 20 31 31 32 35 31 31 37 40 28 5 -11 -17 -10 0 1 0 -3 -5 -3 -7 -7 1 5 9 6 4 8 13 7 -2 4 7 2 8 9 10 9 -9 -13 3 9 5 1 7 10 4 3 0 -4 -4 -5 -5 -3 2 4 6 7 4 6 7 5 7 7 6 4 4 3 2 3 2 1 1 3 5 7 9 8 8 11 11 12 12 11 12 12
7 8 2 1 6 16 18 7 0 2 0 3 13 16 12 13 17 17 19 32 40 39 33 14 4 10 9 8 11 8 6 5 7 11 6 4 4 4 7 13 15 5 5 13 10 10 8 4 5 2 5 9 4 5 3 4 10 7 3 5 1 -3 -4 -8 -6 -2 0 7 9 3 4 7 6 5 6 5 4 3 2 3 3 2 1 1 3 2 2 8 10 8 10 11 11 12 14 14 11
-1 7 9 4 5 21 36 32 12 1 6 8 8 14 10 -3 -2 5 4 6 13 24 42 42 19 10 12 9 10 11 8 7 9 13 15 12 8 9 11 9 15 15 9 12 13 8 5 3 3 6 12 10 1 2 2 1 8 6 2 7 5 1 -2 -7 -6 -2 -1 4 6 4 3 5 7 5 4 5 3 3 2 2 2 2 2 1 4 2 -3 4 11 8 8 10 9 11 15 13 9
-0 -1 2 2 1 11 29 35 17 -2 2 6 2 6 12 5 -3 0 4 5 9 6 10 27 23 9 10 8 7 11 10 7 6 5 11 19 17 12 9 5 8 8 -1 3 13 10 5 2 1 4 10 12 5 -2 -3 -1 5 6 2 5 7 4 2 -0 -2 0 2 1 1 4 3 3 7 6 5 6 4 4 3 2 2 3 3 1 4 6 -2 1 11 9 8 11 9 9 13 12 9
14 8 8 5 9 19 27 32 26 10 -2 -3 5 10 10 15 9 -2 -1 0 9 14 7 14 20 13 12 10 6 10 14 12 11 11 10 14 20 19 13 8 6 3 -4 -0 9 10 8 7 8 4 2 10 10 3 1 -3 1 8 3 4 9 5 4 5 0 -3 0 1 -2 0 4 4 5 6 6 6 6 6 4 3 3 3 3 1 4 9 2 1 9 10 8 10 10 8 10 13 11
30 33 31 12 8 17 18 18 20 21 9 -10 -1 15 12 15 14 1 -2 -1 0 7 10 16 23 19 16 13 4 -2 1 4 3 8 13 9 11 17 18 13 6 5 6 3 3 5 6 9 18 12 0 5 12 13 12 -2 -2 12 8 2 9 11 8 4 2 0 -4 -3 -4 -6 -1 1 -0 2 3 4 7 8 7 5 3 3 3 2 5 8 4 2 7 10 8 8 9 8 8 12 13
23 26 24 10 5 4 3 6 4 12 22 6 -3 6 4 3 10 8 -1 -6 -7 -6 -2 10 22 22 16 15 12 -0 -9 -6 -8 -6 7 12 9 10 15 17 12 9 12 9 4 2 1 11 26 23 7 4 9 9 6 -1 -0 9 10 4 3 14 17 5 1 4 -2 -5 -3 -4 -6 -7 -5 -3 -2 2 5 7 10 8 3 3 4 3 4 5 5 5 7 10 9 6 8 9 7 9 12
2 -3 3 7 9 5 5 12 7 4 18 25 18 13 9 1 3 18 17 2 -5 -9 -11 -3 8 14 14 16 22 22 12 4 -4 -11 -6 5 7 6 7 12 17 15 11 14 15 6 -1 6 20 23 13 6 8 6 3 6 6 3 8 4 -6 6 22 11 -0 3 3 -2 -0 2 -5 -11 -10 -8 -5 -0 2 6 12 11 5 3 5 3 -0 3 8 7 8 12 11 8 7 9 8 8 10
3 -1 4 5 6 6 7 12 15 13 14 24 27 21 26 25 13 16 20 11 7 5 -2 -6 -6 -1 10 16 19 28 31 24 14 1 -7 -4 -1 4 12 11 12 14 10 8 14 14 4 -5 -6 5 16 10 4 5 5 8 7 4 7 1 -10 0 18 19 7 2 5 4 2 2 -4 -8 -7 -9 -6 -1 2 7 12 12 6 2 6 4 -1 4 9 6 7 12 13 9 7 7 8 8 9
14 17 17 19 23 19 10 5 8 11 10 15 19 14 22 36 30 22 22 17 10 10 6 1 -3 -7 1 10 10 18 28 31 34 18 -0 0 -0 -0 11 14 6 7 12 8 10 18 11 -3 -12 -7 14 21 9 -0 -2 -0 -0 -1 -0 -4 -7 -3 9 23 20 5 4 7 6 2 -3 -5 -6 -7 -4 1 5 7 12 15 6 2 7 4 -1 4 6 4 5 10 14 11 6 6 7 7 7
12 16 15 24 35 31 21 12 7 9 10 13 17 14 13 20 22 16 20 23 16 14 11 6 5 3 5 5 -4 -4 2 18 38 26 -2 -2 4 -4 -4 6 7 3 9 9 8 19 18 9 6 2 9 23 18 5 -1 -1 -1 1 2 -2 -3 -1 6 20 18 5 4 9 6 1 -1 -5 -7 -1 3 4 7 8 14 17 6 2 7 3 -1 3 4 5 5 7 13 12 7 6 7 6 6
16 16 11 15 21 21 20 16 11 9 10 7 4 5 4 7 11 7 8 18 21 24 23 17 14 14 16 15 9 6 -4 3 29 27 4 -2 4 5 -3 -1 10 9 7 4 1 12 20 16 14 9 3 7 9 7 8 7 4 6 5 2 6 7 8 15 15 5 4 10 10 2 -2 -4 -4 4 4 -2 1 5 13 19 8 1 6 3 -0 2 2 4 5 6 10 13 9 6 7 8 6
22 24 12 7 10 11 12 13 12 10 13 9 -1 -1 2 5 16 18 16 18 19 20 21 21 17 12 11 11 23 38 19 3 20 20 6 4 5 10 3 -9 1 12 11 6 -4 -3 10 15 15 13 5 -1 -2 3 10 10 13 14 8 12 22 12 4 15 18 7 3 10 11 3 -3 -2 1 2 -6 -11 -6 0 9 17 10 1 4 4 1 2 1 1 4 7 8 12 11 6 6 8 8
21 31 22 8 6 10 8 8 9 9 12 11 6 7 10 14 23 26 23 23 24 22 17 17 16 18 26 15 13 38 29 2 14 23 7 3 6 9 8 -2 -3 8 17 18 9 0 3 7 9 13 13 9 3 6 12 10 13 16 12 18 24 9 7 22 18 4 4 10 10 4 -1 0 4 -0 -12 -10 -2 1 7 14 10 3 2 3 2 2 0 -1 2 6 8 12 12 8 6 7 8
10 26 30 15 4 6 6 5 6 5 4 6 8 10 8 11 16 20 21 18 19 26 28 30 26 18 24 21 16 42 46 3 -9 11 13 12 19 17 11 3 -4 -1 8 14 11 5 4 6 7 7 10 14 11 6 9 9 6 7 10 17 16 10 19 22 9 5 7 9 11 5 1 1 1 -4 -9 -2 4 3 7 13 9 4 1 1 2 2 1 -1 -0 4 8 11 12 9 5 5 8
4 13 26 22 11 9 10 9 7 6 7 6 6 7 7 8 6 9 16 13 11 20 22 28 39 30 13 10 15 33 48 22 -12 -12 1 4 12 17 10 0 -3 -1 4 14 13 -1 -7 2 9 8 5 7 12 9 5 3 0 0 7 15 8 11 24 12 -6 3 10 13 14 5 1 -0 -8 -7 -0 4 5 6 11 13 9 4 1 0 1 2 2 -0 -2 1 6 12 13 10 6 4 6
5 5 13 18 19 18 14 13 13 9 8 7 6 7 8 13 14 12 15 15 14 20 18 14 29 41 21 4 12 20 32 41 24 7 5 -12 -20 -3 10 14 18 12 4 14 21 5 -5 2 7 12 12 6 8 12 9 8 10 4 1 10 14 16 19 1 -16 -8 1 10 15 9 5 -4 -16 -7 6 5 5 10 12 10 9 5 1 0 0 1 3 1 -1 0 4 12 14 10 8 5 4
7 4 5 7 13 17 14 15 17 14 15 19 20 13 5 8 18 20 17 17 14 13 23 23 18 32 32 7 4 10 12 26 31 28 34 28 18 10 -4 -1 21 23 9 9 15 9 2 1 3 10 15 16 19 16 9 9 14 12 1 1 13 23 14 -8 -15 -9 -6 2 13 15 6 -15 -23 -5 8 5 6 10 8 6 8 7 1 0 1 0 2 1 -0 0 2 10 15 11 8 6 4
9 7 5 5 6 9 11 12 13 13 13 15 27 41 37 23 13 10 10 16 18 10 14 24 15 19 33 22 9 4 -2 6 15 14 19 32 47 33 -11 -25 -4 9 13 15 14 11 3 -8 -7 -2 -4 -3 7 9 7 9 7 7 12 4 -1 13 18 4 1 6 4 4 9 17 12 -11 -19 -1 8 5 5 6 5 3 6 9 4 0 1 0 1 1 0 1 1 7 14 12 8 7 6
13 10 6 3 2 4 9 13 15 15 9 3 18 43 53 49 31 13 6 6 16 18 11 12 14 13 15 18 22 15 3 8 13 12 10 9 21 27 7 1 6 -3 -3 -0 -9 -7 5 6 -4 -8 -9 -11 -6 -1 1 14 15 3 7 13 1 0 12 16 15 13 12 9 5 12 17 4 -3 6 7 4 4 4 5 5 7 11 6 0 1 1 0 0 0 1 0 3 11 14 10 8 7
26 24 20 13 9 10 13 16 9 2 4 3 4 6 13 34 43 29 16 7 8 20 17 8 16 27 16 0 5 9 5 14 19 18 19 10 8 15 6 10 27 23 13 11 -1 -12 3 29 22 2 -0 -9 -17 -8 -5 -0 18 15 -1 3 9 6 6 14 17 15 15 14 9 9 10 6 6 8 5 3 3 2 4 7 9 11 8 2 1 1 1 -0 0 1 1 1 7 11 11 10 9
Height
5851 5853 5854 5855 5856 5857 5858 5859 5861 5862 5864 5866 5869 5871 5873 5877 5881 5884 5885 5885 5884 5881 5880 5879 5879 5879 5878 5880 5881 5883 5883 5883 5885 5887 5888 5890 5891 5891 5892 5893 5893 5894 5894 5895 5895 5896 5897 5897 5898 5899 5899 5900 5900 5900 5901 5901 5901 5901 5901 5901 5901 5900 5900 5900 5899 5899 5898 5898 5897 5896 5896 5895 5894 5893 5892 5891 5890 5890 5889 5888 5887 5887 5886 5886 5886 5885 5885 5885 5884 5884 5883 5883 5883 5882 5882 5881 5881
5848 5849 5850 5852 5853 5854 5855 5857 5859 5860 5862 5864 5867 5869 5872 5877 5879 5881 5882 5883 5882 5880 5878 5877 5877 5877 5878 5878 5880 5883 5883 5883 5884 5886 5888 5890 5890 5890 5892 5892 5893 5893 5894 5894 5895 5895 5896 5897 5897 5898 5899 5899 5899 5900 5900 5900 5900 5901 5901 5901 5900 5900 5900 5900 5899 5899 5899 5898 5898 5897 5896 5895 5894 5893 5892 5891 5890 5890 5889 5888 5888 5887 5887 5886 5886 5886 5885 5885 5884 5884 5883 5883 5883 5882 5881 5881 5881
5844 5845 5847 5848 5849 5850 5852 5854 5856 5858 5860 5862 5865 5868 5871 5877 5878 5880 5881 5882 5883 5880 5877 5874 5874 5875 5877 5878 5879 5881 5881 5881 5883 5885 5888 5890 5889 5889 5891 5891 5892 5893 5893 5894 5894 5895 5895 5896 5897 5897 5898 5898 5899 5899 5899 5899 5900 5900 5900 5900 5900 5900 5900 5900 5899 5899 5899 5898 5898 5897 5896 5895 5894 5894 5893 5892 5891 5890 5889 5888 5888 5887 5887 5886 5886 5886 5885 5885 5884 5884 5883 5883 5882 5882 5881 5880 5880
5841 5842 5843 5844 5845 5847 5849 5851 5854 5855 5857 5860 5864 5867 5871 5875 5878 5879 5878 5880 5881 5880 5877 5871 5871 5873 5875 5877 5877 5878 5879 5881 5883 5885 5888 5890 5888 5888 5890 5890 5891 5892 5892 5893 5893 5894 5895 5896 5896 5897 5897 5898 5899 5899 5899 5899 5899 5899 5900 5900 5900 5900 5900 5900 5899 5899 5899 5898 5898 5897 5897 5896 5895 5894 5893 5892 5891 5890 5889 5889 5888 5888 5887 5887 5886 5886 5885 5885 5884 5884 5883 5882 5882 5881 5881 5880 5879
5837 5838 5839 5840 5842 5844 5846 5847 5850 5852 5856 5859 5862 5866 5870 5873 5875 5876 5874 5875 5876 5877 5874 5869 5868 5870 5874 5875 5874 5875 5878 5880 5881 5883 5887 5888 5887 5888 5889 5889 5890 5891 5891 5892 5892 5893 5894 5895 5895 5896 5897 5898 5898 5898 5899 5899 5899 5899 5899 5900 5900 5900 5900 5900 5899 5899 5898 5898 5898 5897 5897 5896 5895 5894 5893 5892 5891 5890 5889 5888 5888 5888 5887 5887 5886 5886 5885 5885 5884 5883 5883 5882 5882 5881 5880 5880 5879
5833 5835 5835 5837 5839 5840 5842 5844 5847 5850 5854 5858 5859 5865 5869 5869 5872 5873 5872 5871 5871 5871 5869 5867 5866 5867 5871 5872 5871 5873 5876 5878 5878 5881 5886 5887 5886 5887 5888 5889 5890 5890 5891 5891 5891 5892 5893 5894 5895 5895 5896 5897 5897 5897 5898 5898 5899 5899 5899 5899 5899 5899 5899 5899 5899 5899 5898 5898 5898 5897 5897 5896 5895 5894 5893 5892 5891 5890 5888 5888 5888 5888 5887 5887 5886 5886 5885 5885 5884 5883 5883 5882 5881 5881 5880 5880 5879
5829 5831 5832 5834 5835 5837 5839 5842 5845 5848 5852 5856 5858 5864 5865 5865 5868 5869 5870 5869 5869 5866 5864 5866 5865 5866 5868 5868 5869 5871 5874 5876 5877 5880 5885 5886 5885 5886 5887 5888 5889 5889 5890 5890 5891 5892 5892 5893 5894 5894 5895 5896 5896 5896 5897 5898 5898 5898 5898 5898 5899 5899 5899 5899 5899 5899 5898 5898 5897 5897 5896 5896 5895 5894 5893 5892 5891 5889 5888 5888 5887 5887 5887 5887 5886 5886 5885 5885 5884 5883 5882 5882 5881 5881 5880 5879 5879
5825 5827 5828 5830 5831 5833 5836 5839 5842 5845 5850 5853 5856 5862 5860 5860 5864 5865 5867 5867 5866 5863 5862 5864 5865 5866 5866 5865 5867 5870 5872 5873 5875 5880 5883 5884 5884 5885 5887 5887 5888 5888 5889 5889 5890 5891 5892 5892 5893 5893 5894 5895 5895 5895 5896 5897 5897 5897 5898 5898 5898 5898 5899 5899 5899 5899 5898 5898 5897 5896 5896 5896 5895 5894 5893 5892 5891 5889 5888 5887 5887 5887 5887 5887 5886 5885 5885 5884 5884 5883 5882 5882 5881 5880 5880 5879 5879
5820 5823 5824 5826 5828 5829 5832 5836 5840 5843 5847 5850 5855 5860 5858 5858 5860 5861 5864 5864 5863 5861 5860 5862 5864 5865 5864 5865 5866 5867 5869 5869 5872 5877 5880 5882 5882 5884 5886 5886 5887 5887 5888 5889 5890 5890 5891 5891 5891 5892 5893 5894 5895 5894 5895 5896 5896 5896 5897 5897 5897 5898 5898 5898 5898 5898 5898 5898 5897 5896 5895 5895 5895 5894 5893 5892 5891 5889 5888 5887 5887 5887 5887 5886 5886 5885 5885 5884 5883 5882 5882 5881 5881 5880 5879 5879 5878
5816 5818 5820 5821 5824 5825 5828 5832 5837 5841 5845 5849 5854 5858 5858 5858 5859 5859 5861 5863 5862 5860 5859 5861 5862 5862 5862 5865 5865 5865 5867 5867 5870 5874 5877 5880 5880 5882 5884 5885 5886 5886 5887 5888 5889 5889 5890 5890 5890 5891 5892 5893 5894 5894 5894 5895 5895 5895 5896 5896 5896 5897 5897 5898 5898 5898 5898 5898 5897 5896 5895 5894 5894 5894 5893 5892 5890 5889 5888 5887 5886 5886 5886 5886 5885 5885 5884 5884 5883 5882 5881 5881 5880 5879 5879 5878 5878
5811 5815 5817 5817 5820 5822 5824 5828 5832 5838 5842 5846 5851 5856 5858 5858 5858 5858 5859 5861 5860 5857 5858 5860 5860 5859 5860 5861 5862 5863 5865 5866 5868 5871 5874 5877 5878 5880 5882 5884 5885 5885 5886 5887 5888 5888 5888 5889 5889 5890 5890 5891 5892 5893 5893 5894 5894 5894 5894 5895 5895 5896 5897 5897 5897 5897 5897 5897 5897 5896 5895 5894 5893 5893 5893 5892 5890 5889 5888 5887 5886 5886 5886 5885 5885 5884 5884 5883 5882 5882 5881 5880 5880 5879 5878 5878 5877
5807 5810 5812 5813 5816 5819 5822 5824 5828 5835 5838 5842 5847 5853 5855 5856 5857 5857 5858 5857 5854 5854 5855 5856 5857 5857 5857 5858 5859 5860 5862 5863 5866 5868 5870 5874 5877 5878 5880 5882 5882 5883 5885 5886 5886 5887 5887 5888 5888 5888 5889 5890 5891 5892 5892 5893 5894 5894 5894 5894 5894 5895 5896 5896 5897 5897 5896 5896 5896 5895 5895 5894 5893 5893 5892 5891 5890 5889 5888 5887 5886 5886 5885 5885 5884 5884 5883 5883 5882 5881 5881 5880 5879 5878 5878 5877 5877
5803 5806 5808 5809 5812 5816 5819 5821 5825 5830 5834 5839 5844 5849 5852 5853 5855 5856 5856 5852 5850 5852 5851 5851 5853 5854 5855 5855 5857 5859 5859 5861 5864 5866 5868 5871 5874 5876 5879 5880 5880 5882 5883 5884 5885 5885 5886 5886 5887 5887 5888 5889 5890 5891 5891 5892 5893 5893 5893 5893 5893 5894 5895 5896 5896 5896 5896 5896 5896 5895 5895 5894 5893 5893 5892 5891 5889 5888 5887 5887 5886 5886 5885 5884 5884 5883 5883 5882 5881 5881 5880 5879 5879 5878 5877 5877 5876
5799 5801 5803 5806 5808 5812 5815 5818 5821 5824 5830 5837 5842 5846 5848 5848 5852 5854 5853 5850 5847 5848 5846 5846 5849 5851 5853 5854 5856 5857 5858 5859 5861 5864 5866 5868 5872 5875 5877 5878 5878 5880 5881 5882 5883 5884 5884 5885 5885 5886 5886 5887 5888 5889 5890 5891 5892 5892 5892 5892 5893 5894 5895 5895 5896 5896 5896 5895 5895 5895 5894 5894 5894 5893 5892 5891 5889 5888 5887 5887 5886 5885 5885 5884 5883 5883 5882 5882 5881 5880 5879 5879 5878 5877 5877 5876 5875
5795 5797 5798 5801 5804 5808 5812 5816 5819 5821 5827 5834 5839 5844 5846 5847 5850 5851 5849 5848 5845 5844 5844 5843 5846 5849 5850 5853 5854 5855 5855 5855 5858 5861 5862 5866 5869 5873 5875 5875 5876 5878 5879 5880 5881 5881 5882 5883 5884 5884 5885 5886 5887 5888 5889 5890 5890 5891 5892 5892 5892 5893 5894 5894 5895 5895 5895 5895 5895 5894 5894 5894 5894 5893 5892 5891 5889 5888 5887 5886 5886 5885 5884 5884 5883 5882 5882 5881 5880 5880 5879 5878 5877 5877 5876 5875 5875
5789 5792 5793 5796 5800 5804 5809 5812 5816 5819 5824 5830 5836 5840 5842 5843 5847 5847 5847 5846 5842 5841 5842 5843 5845 5847 5849 5852 5852 5851 5852 5853 5855 5858 5860 5863 5867 5870 5872 5873 5874 5875 5877 5878 5878 5879 5880 5881 5882 5883 5884 5885 5885 5886 5887 5888 5888 5889 5890 5891 5891 5892 5892 5893 5894 5894 5895 5894 5894 5894 5894 5894 5894 5893 5892 5891 5890 5888 5887 5886 5886 5885 5884 5883 5882 5882 5881 5881 5880 5879 5878 5878 5877 5876 5875 5875 5874
5783 5786 5788 5791 5796 5801 5805 5810 5813 5816 5820 5825 5831 5833 5834 5837 5840 5841 5843 5842 5839 5837 5839 5841 5843 5845 5848 5850 5850 5849 5850 5851 5853 5855 5857 5861 5865 5868 5869 5870 5872 5873 5874 5875 5876 5877 5878 5879 5880 5881 5882 5883 5884 5884 5885 5886 5886 5887 5888 5889 5890 5890 5891 5891 5892 5893 5893 5893 5893 5893 5893 5893 5893 5893 5892 5891 5890 5888 5887 5886 5885 5885 5884 5883 5882 5881 5880 5880 5879 5879 5878 5877 5876 5876 5875 5874 5873
5776 5780 5784 5786 5792 5798 5805 5809 5811 5814 5818 5822 5826 5828 5829 5831 5833 5835 5837 5836 5832 5833 5835 5837 5839 5842 5845 5847 5848 5849 5850 5850 5851 5853 5856 5859 5862 5864 5866 5867 5869 5870 5872 5873 5874 5875 5875 5877 5878 5879 5880 5881 5882 5882 5883 5884 5885 5885 5886 5888 5889 5889 5889 5890 5891 5891 5892 5892 5892 5892 5893 5893 5892 5892 5892 5891 5890 5888 5887 5886 5885 5885 5884 5883 5882 5881 5880 5879 5879 5878 5878 5877 5876 5875 5874 5874 5873
5772 5776 5779 5783 5790 5797 5804 5807 5808 5812 5816 5820 5823 5825 5826 5827 5829 5831 5832 5828 5826 5830 5832 5833 5836 5839 5842 5843 5845 5848 5849 5849 5850 5851 5853 5855 5857 5859 5861 5863 5865 5867 5869 5871 5872 5872 5874 5875 5877 5877 5878 5879 5880 5881 5882 5882 5883 5883 5885 5886 5887 5887 5888 5888 5889 5890 5890 5891 5891 5891 5891 5891 5891 5891 5891 5890 5889 5888 5887 5886 5885 5884 5884 5883 5881 5880 5879 5878 5878 5877 5877 5876 5875 5874 5874 5874 5873
5770 5772 5773 5780 5790 5794 5799 5802 5805 5809 5813 5816 5819 5821 5821 5823 5826 5827 5828 5825 5822 5826 5829 5831 5833 5835 5838 5840 5842 5844 5846 5847 5847 5848 5850 5852 5855 5857 5858 5859 5862 5863 5865 5867 5869 5870 5872 5873 5874 5876 5877 5878 5878 5879 5880 5881 5881 5882 5883 5884 5885 5886 5886 5887 5887 5888 5888 5889 5889 5890 5890 5890 5890 5890 5890 5889 5889 5888 5887 5886 5885 5884 5883 5882 5881 5880 5879 5878 5877 5877 5876 5876 5875 5874 5874 5874 5873
5767 5767 5771 5780 5787 5788 5793 5797 5801 5806 5809 5811 5814 5816 5816 5818 5821 5823 5824 5823 5821 5824 5826 5828 5829 5832 5836 5837 5838 5840 5842 5842 5843 5845 5847 5850 5854 5856 5858 5859 5859 5858 5859 5861 5863 5866 5869 5871 5872 5874 5875 5876 5877 5878 5878 5879 5880 5881 5881 5882 5883 5884 5885 5886 5886 5886 5887 5887 5888 5888 5889 5889 5889 5889 5889 5888 5888 5887 5886 5885 5884 5883 5882 5882 5880 5879 5878 5877 5877 5876 5876 5875 5875 5874 5873 5873 5873
5762 5765 5771 5778 5779 5781 5787 5793 5797 5801 5804 5806 5809 5811 5812 5813 5816 5819 5820 5820 5820 5822 5824 5825 5827 5830 5831 5833 5836 5837 5838 5839 5840 5843 5845 5848 5851 5853 5855 5856 5857 5856 5855 5856 5858 5862 5865 5868 5870 5872 5873 5875 5875 5876 5877 5878 5879 5879 5880 5881 5882 5883 5884 5884 5885 5885 5885 5886 5887 5887 5887 5888 5888 5888 5888 5887 5887 5886 5885 5884 5883 5882 5882 5881 5880 5879 5878 5877 5876 5876 5875 5875 5874 5873 5872 5873 5872
5758 5763 5769 5772 5773 5776 5781 5787 5793 5796 5798 5800 5803 5807 5809 5809 5811 5814 5816 5818 5819 5819 5821 5823 5824 5825 5826 5829 5832 5833 5835 5836 5838 5841 5843 5845 5848 5850 5851 5852 5854 5857 5857 5855 5855 5859 5862 5865 5868 5870 5871 5873 5874 5875 5876 5877 5878 5878 5879 5880 5881 5882 5883 5883 5883 5884 5884 5885 5885 5886 5886 5887 5887 5887 5887 5886 5886 5885 5884 5884 5882 5882 5881 5880 5879 5878 5877 5876 5875 5875 5875 5874 5873 5873 5872 5872 5871
5754 5759 5764 5767 5769 5773 5776 5781 5786 5790 5792 5796 5799 5802 5804 5805 5808 5810 5812 5816 5818 5818 5819 5819 5819 5820 5823 5825 5827 5829 5832 5833 5835 5837 5839 5842 5844 5846 5848 5848 5850 5854 5855 5855 5855 5856 5858 5861 5865 5867 5869 5871 5872 5873 5875 5876 5877 5877 5878 5879 5880 5881 5881 5882 5882 5882 5883 5884 5884 5885 5885 5886 5886 5886 5886 5885 5885 5884 5884 5883 5882 5881 5880 5879 5878 5877 5876 5876 5874 5874 5874 5873 5872 5872 5871 5872 5871
5750 5755 5759 5761 5764 5768 5771 5774 5779 5784 5787 5791 5794 5795 5799 5803 5805 5807 5810 5813 5816 5817 5815 5814 5815 5818 5821 5822 5824 5826 5828 5830 5831 5833 5836 5838 5840 5843 5844 5845 5847 5849 5849 5850 5852 5854 5854 5856 5860 5864 5867 5869 5870 5871 5873 5874 5876 5877 5877 5878 5879 5880 5880 5881 5881 5881 5882 5883 5883 5884 5884 5884 5885 5885 5885 5884 5884 5883 5883 5882 5881 5880 5879 5878 5877 5876 5876 5875 5874 5873 5873 5872 5872 5871 5871 5871 5870
5746 5751 5754 5756 5758 5762 5766 5769 5773 5778 5782 5785 5788 5790 5794 5800 5801 5802 5808 5812 5812 5814 5812 5809 5811 5814 5818 5820 5822 5824 5825 5826 5829 5830 5833 5835 5837 5839 5841 5843 5846 5847 5847 5846 5848 5851 5853 5854 5856 5860 5864 5867 5868 5870 5871 5873 5875 5876 5876 5877 5878 5879 5879 5880 5880 5881 5881 5882 5882 5882 5883 5883 5883 5884 5884 5883 5883 5883 5882 5881 5880 5879 5878 5877 5877 5876 5875 5874 5873 5873 5872 5871 5870 5870 5870 5870 5869
5743 5745 5747 5749 5751 5756 5760 5763 5768 5772 5775 5778 5782 5785 5789 5794 5795 5797 5806 5810 5810 5812 5809 5806 5807 5810 5815 5818 5820 5822 5822 5823 5826 5828 5830 5832 5835 5837 5839 5841 5843 5844 5846 5846 5846 5848 5852 5854 5854 5856 5861 5864 5866 5868 5869 5872 5873 5875 5875 5876 5877 5877 5878 5879 5879 5879 5880 5880 5881 5881 5881 5882 5882 5882 5882 5882 5882 5882 5881 5880 5879 5878 5877 5877 5876 5875 5874 5873 5873 5872 5871 5870 5869 5869 5869 5869 5869
5737 5738 5739 5742 5745 5748 5753 5759 5763 5767 5770 5774 5778 5782 5784 5787 5788 5793 5802 5806 5808 5810 5807 5804 5804 5807 5811 5815 5817 5819 5820 5822 5824 5827 5828 5831 5833 5835 5838 5839 5840 5842 5843 5845 5847 5848 5851 5854 5854 5853 5857 5860 5863 5865 5867 5870 5872 5873 5874 5875 5876 5876 5877 5878 5878 5878 5879 5879 5879 5879 5880 5880 5881 5881 5881 5881 5881 5880 5880 5879 5878 5877 5876 5876 5875 5875 5874 5873 5872 5872 5871 5869 5869 5868 5868 5867 5867
5732 5734 5735 5739 5742 5744 5750 5755 5759 5762 5767 5771 5774 5775 5776 5780 5783 5791 5798 5801 5804 5806 5806 5805 5802 5804 5807 5811 5815 5816 5818 5820 5822 5825 5827 5829 5831 5832 5835 5836 5837 5839 5840 5842 5845 5847 5849 5852 5853 5852 5853 5857 5860 5863 5865 5867 5869 5871 5873 5874 5874 5875 5876 5876 5877 5877 5877 5877 5878 5878 5878 5879 5879 5880 5880 5880 5880 5879 5878 5878 5877 5877 5876 5876 5875 5875 5874 5873 5872 5871 5869 5868 5868 5867 5866 5865 5865
5728 5731 5733 5736 5738 5742 5747 5752 5755 5759 5763 5767 5769 5767 5769 5774 5781 5789 5793 5795 5799 5801 5804 5804 5801 5801 5802 5805 5811 5813 5814 5818 5822 5823 5825 5827 5828 5829 5831 5833 5834 5836 5838 5839 5841 5843 5845 5848 5852 5851 5849 5853 5857 5860 5863 5865 5867 5869 5870 5872 5873 5874 5874 5875 5876 5876 5876 5876 5876 5877 5877 5878 5878 5878 5879 5879 5879 5878 5878 5877 5876 5876 5876 5876 5875 5874 5874 5872 5870 5869 5868 5867 5867 5866 5865 5864 5863
5725 5727 5729 5732 5734 5738 5745 5749 5752 5756 5759 5762 5763 5762 5765 5771 5777 5785 5789 5790 5794 5796 5800 5802 5799 5798 5799 5801 5805 5810 5812 5815 5820 5822 5823 5824 5826 5827 5828 5830 5831 5834 5835 5837 5838 5840 5841 5843 5849 5849 5847 5850 5855 5858 5861 5864 5866 5867 5868 5870 5871 5872 5873 5874 5874 5875 5875 5875 5875 5875 5876 5876 5877 5877 5877 5877 5877 5877 5877 5876 5875 5875 5875 5875 5874 5874 5872 5870 5868 5867 5866 5865 5865 5864 5863 5863 5862
5722 5723 5725 5728 5729 5734 5742 5746 5748 5751 5754 5757 5758 5758 5763 5770 5774 5780 5784 5786 5789 5791 5794 5798 5797 5796 5798 5799 5800 5805 5810 5812 5815 5819 5821 5822 5824 5825 5827 5829 5830 5832 5832 5834 5837 5839 5840 5842 5847 5847 5845 5848 5853 5856 5859 5862 5864 5865 5866 5868 5869 5870 5871 5872 5873 5873 5874 5874 5874 5874 5874 5875 5875 5875 5876 5876 5876 5875 5875 5874 5874 5873 5873 5873 5873 5872 5871 5868 5866 5866 5865 5864 5863 5863 5861 5860 5860
5718 5719 5721 5724 5726 5730 5736 5740 5744 5746 5749 5752 5754 5755 5760 5766 5770 5776 5780 5782 5784 5786 5789 5793 5794 5796 5796 5795 5796 5800 5805 5808 5809 5814 5819 5820 5822 5823 5825 5827 5829 5830 5830 5831 5835 5838 5840 5842 5846 5845 5843 5847 5851 5854 5858 5860 5862 5864 5865 5866 5867 5868 5869 5870 5871 5872 5872 5872 5872 5872 5873 5873 5874 5874 5874 5875 5874 5874 5873 5873 5872 5872 5872 5872 5871 5871 5869 5866 5865 5865 5864 5862 5861 5861 5860 5859 5858
5715 5715 5718 5721 5723 5726 5729 5734 5739 5743 5745 5748 5751 5752 5754 5760 5765 5771 5776 5777 5780 5782 5784 5787 5790 5793 5793 5792 5793 5795 5798 5802 5805 5810 5816 5818 5819 5821 5823 5824 5826 5828 5828 5828 5832 5837 5839 5841 5844 5843 5842 5845 5849 5852 5856 5858 5860 5862 5863 5864 5865 5866 5867 5868 5869 5870 5871 5871 5871 5871 5871 5872 5872 5873 5873 5873 5873 5872 5872 5872 5871 5871 5871 5870 5870 5870 5867 5864 5863 5863 5862 5860 5859 5859 5858 5857 5857
5711 5711 5713 5716 5719 5722 5725 5729 5734 5738 5741 5744 5748 5747 5749 5755 5759 5765 5771 5772 5774 5778 5780 5783 5785 5788 5789 5789 5790 5792 5794 5798 5802 5807 5812 5815 5816 5818 5820 5821 5823 5825 5826 5826 5828 5833 5836 5838 5841 5841 5841 5843 5847 5850 5853 5856 5858 5860 5861 5863 5863 5864 5865 5867 5868 5868 5869 5869 5869 5869 5869 5870 5871 5871 5872 5872 5871 5871 5870 5870 5870 5870 5869 5868 5868 5868 5866 5864 5862 5861 5861 5859 5858 5857 5856 5856 5855
5705 5706 5708 5711 5714 5717 5721 5725 5730 5734 5736 5738 5742 5743 5745 5749 5753 5759 5765 5767 5769 5772 5774 5777 5780 5782 5785 5787 5787 5789 5791 5794 5798 5803 5807 5811 5813 5814 5816 5818 5819 5821 5823 5824 5825 5829 5831 5835 5837 5838 5840 5842 5844 5848 5851 5853 5856 5857 5859 5861 5862 5863 5863 5864 5866 5866 5867 5867 5867 5867 5868 5868 5869 5870 5870 5870 5870 5870 5869 5869 5869 5868 5867 5866 5866 5866 5865 5863 5862 5860 5860 5858 5857 5856 5855 5855 5854
5700 5702 5703 5705 5708 5711 5715 5720 5725 5729 5731 5733 5736 5738 5740 5743 5747 5751 5756 5760 5763 5767 5769 5771 5774 5778 5781 5783 5785 5786 5787 5789 5793 5797 5801 5805 5808 5810 5812 5813 5815 5817 5819 5821 5822 5825 5827 5830 5834 5835 5837 5840 5842 5845 5848 5851 5853 5854 5856 5858 5859 5860 5861 5862 5863 5864 5865 5865 5865 5865 5866 5866 5867 5868 5868 5868 5868 5868 5868 5867 5867 5867 5866 5864 5864 5864 5863 5862 5861 5860 5859 5857 5856 5855 5854 5854 5853
5698 5700 5701 5702 5705 5707 5711 5714 5719 5722 5723 5725 5730 5733 5734 5738 5741 5744 5747 5751 5755 5760 5763 5766 5769 5772 5776 5779 5781 5783 5785 5786 5787 5790 5794 5798 5803 5806 5807 5808 5810 5813 5816 5818 5820 5822 5824 5827 5830 5832 5834 5837 5840 5842 5845 5848 5850 5852 5854 5855 5856 5857 5859 5860 5861 5862 5863 5863 5864 5864 5864 5865 5865 5866 5867 5867 5867 5867 5866 5866 5866 5865 5864 5863 5862 5863 5862 5861 5860 5859 5857 5856 5855 5854 5853 5852 5852
5696 5697 5699 5701 5704 5706 5709 5712 5715 5717 5716 5717 5722 5724 5726 5729 5732 5735 5739 5743 5748 5752 5756 5761 5764 5767 5771 5774 5776 5780 5783 5783 5783 5785 5787 5791 5797 5802 5803 5804 5806 5809 5812 5814 5817 5819 5821 5823 5826 5829 5831 5834 5837 5839 5841 5844 5847 5849 5851 5852 5853 5854 5856 5858 5860 5861 5861 5862 5862 5862 5863 5863 5864 5864 5865 5865 5865 5865 5865 5864 5864 5863 5863 5862 5861 5861 5861 5859 5858 5857 5857 5855 5854 5853 5852 5851 5850
5693 5695 5696 5699 5702 5704 5706 5709 5711 5710 5710 5711 5713 5715 5718 5721 5725 5729 5733 5736 5741 5745 5748 5753 5758 5761 5764 5769 5772 5775 5779 5779 5779 5781 5783 5785 5790 5796 5799 5801 5803 5805 5808 5811 5813 5815 5818 5820 5822 5825 5828 5830 5833 5835 5838 5840 5843 5845 5847 5849 5851 5852 5853 5855 5858 5860 5860 5860 5861 5861 5861 5861 5862 5862 5863 5863 5864 5863 5863 5863 5862 5862 5861 5860 5860 5860 5860 5858 5856 5856 5856 5855 5853 5852 5851 5849 5849
5690 5692 5694 5697 5700 5700 5701 5704 5705 5705 5706 5708 5710 5711 5714 5718 5722 5727 5730 5732 5734 5738 5741 5744 5749 5755 5758 5762 5766 5770 5773 5775 5776 5777 5779 5781 5784 5789 5794 5797 5799 5801 5804 5807 5810 5811 5813 5817 5819 5821 5824 5827 5829 5832 5834 5837 5840 5842 5844 5846 5849 5850 5851 5854 5857 5859 5858 5858 5859 5859 5859 5859 5860 5860 5861 5861 5862 5862 5862 5861 5861 5860 5859 5859 5858 5858 5858 5857 5855 5854 5854 5853 5852 5850 5849 5848 5848
5689 5691 5693 5696 5697 5696 5695 5698 5701 5703 5706 5709 5710 5710 5711 5715 5718 5723 5727 5729 5731 5733 5735 5738 5743 5749 5753 5756 5760 5764 5768 5771 5772 5773 5775 5777 5779 5783 5788 5791 5794 5797 5800 5803 5805 5807 5809 5812 5815 5817 5821 5823 5825 5828 5831 5833 5836 5839 5841 5844 5846 5848 5849 5851 5854 5855 5855 5856 5856 5856 5857 5857 5858 5858 5858 5859 5860 5860 5860 5860 5859 5858 5858 5857 5856 5856 5856 5856 5854 5852 5851 5851 5851 5849 5848 5847 5846
5688 5689 5690 5691 5690 5690 5691 5693 5696 5699 5701 5704 5706 5705 5705 5710 5713 5717 5722 5724 5726 5728 5730 5734 5739 5744 5747 5750 5753 5757 5761 5765 5767 5768 5770 5772 5775 5777 5780 5785 5789 5792 5795 5797 5800 5803 5805 5808 5811 5814 5816 5818 5820 5823 5826 5829 5831 5834 5838 5841 5843 5845 5846 5847 5849 5852 5853 5853 5854 5854 5855 5855 5856 5856 5856 5857 5857 5858 5858 5858 5857 5857 5856 5855 5855 5854 5854 5854 5853 5852 5850 5849 5849 5848 5847 5845 5844
5684 5685 5686 5685 5685 5687 5690 5692 5693 5694 5696 5699 5702 5701 5701 5706 5710 5713 5717 5719 5721 5723 5726 5730 5735 5739 5741 5745 5748 5751 5755 5759 5762 5764 5765 5767 5770 5773 5775 5779 5783 5787 5790 5792 5795 5798 5801 5803 5806 5809 5812 5814 5816 5819 5822 5825 5827 5830 5834 5837 5839 5841 5843 5844 5846 5848 5850 5851 5852 5853 5853 5854 5854 5854 5855 5855 5855 5856 5856 5856 5856 5855 5854 5854 5853 5853 5852 5852 5852 5851 5850 5848 5847 5846 5845 5844 5843
5680 5681 5682 5681 5683 5687 5689 5690 5691 5692 5694 5698 5703 5703 5700 5703 5709 5713 5714 5715 5717 5720 5723 5727 5731 5734 5738 5742 5745 5748 5752 5755 5757 5759 5761 5763 5765 5768 5771 5774 5778 5781 5784 5787 5790 5793 5796 5799 5801 5805 5807 5810 5813 5815 5818 5821 5823 5826 5830 5833 5835 5837 5839 5841 5842 5845 5847 5848 5850 5851 5851 5852 5852 5852 5853 5853 5853 5853 5854 5854 5854 5854 5853 5852 5852 5851 5851 5850 5849 5848 5848 5847 5846 5844 5843 5843 5842
5678 5679 5679 5680 5682 5686 5686 5687 5689 5689 5691 5695 5701 5702 5698 5698 5705 5710 5711 5712 5715 5718 5721 5723 5725 5730 5735 5739 5742 5746 5749 5752 5754 5755 5756 5759 5761 5764 5767 5770 5773 5775 5778 5781 5784 5787 5790 5793 5797 5800 5803 5806 5809 5811 5814 5816 5818 5821 5825 5828 5831 5832 5835 5838 5839 5841 5843 5845 5846 5848 5849 5850 5850 5851 5851 5851 5851 5851 5851 5851 5852 5852 5851 5851 5850 5850 5849 5848 5847 5846 5845 5845 5844 5842 5841 5840 5840
5677 5678 5678 5678 5679 5681 5683 5684 5686 5686 5688 5693 5696 5697 5694 5693 5697 5703 5705 5708 5711 5714 5718 5720 5722 5726 5731 5735 5738 5742 5745 5748 5751 5752 5752 5754 5756 5759 5762 5764 5768 5770 5772 5775 5779 5781 5784 5787 5791 5795 5799 5801 5804 5806 5809 5811 5813 5816 5820 5823 5826 5828 5830 5833 5836 5838 5840 5841 5843 5845 5846 5847 5848 5849 5849 5849 5849 5849 5849 5849 5849 5850 5850 5849 5848 5848 5847 5846 5845 5844 5843 5843 5842 5841 5839 5838 5837
5676 5676 5676 5676 5676 5677 5679 5681 5683 5683 5686 5691 5692 5690 5688 5687 5691 5696 5700 5703 5707 5710 5714 5717 5719 5722 5727 5731 5734 5737 5740 5743 5747 5748 5748 5749 5750 5753 5756 5758 5762 5765 5767 5770 5773 5776 5778 5781 5785 5789 5793 5796 5798 5801 5804 5806 5808 5811 5815 5818 5821 5824 5826 5828 5832 5835 5836 5838 5840 5842 5843 5845 5846 5846 5847 5847 5847 5847 5847 5847 5847 5847 5848 5848 5847 5846 5845 5844 5843 5842 5841 5840 5840 5839 5838 5837 5836
5674 5674 5674 5675 5675 5676 5678 5679 5680 5680 5682 5686 5686 5684 5683 5684 5689 5695 5699 5702 5705 5707 5709 5711 5714 5716 5720 5725 5729 5732 5735 5738 5741 5742 5743 5744 5744 5746 5749 5753 5756 5759 5763 5766 5767 5769 5772 5775 5779 5782 5786 5790 5793 5796 5799 5801 5802 5805 5809 5813 5816 5819 5821 5824 5827 5830 5832 5833 5836 5839 5840 5842 5843 5843 5844 5845 5845 5845 5845 5845 5845 5846 5846 5846 5845 5844 5843 5842 5841 5840 5839 5838 5837 5837 5836 5835 5834
5673 5673 5673 5673 5674 5675 5677 5678 5678 5678 5679 5682 5683 5682 5682 5685 5689 5693 5695 5697 5699 5701 5702 5704 5706 5709 5713 5717 5722 5725 5729 5732 5734 5736 5738 5739 5740 5740 5743 5747 5749 5753 5757 5761 5762 5764 5767 5769 5772 5776 5780 5783 5787 5790 5793 5796 5798 5801 5804 5808 5811 5814 5817 5819 5822 5826 5827 5829 5832 5835 5837 5839 5840 5840 5841 5842 5842 5842 5842 5843 5843 5843 5844 5843 5843 5843 5842 5841 5840 5838 5837 5836 5835 5834 5833 5832 5832
5672 5672 5671 5672 5673 5673 5675 5676 5676 5677 5678 5679 5681 5680 5680 5683 5686 5688 5690 5691 5693 5695 5698 5700 5702 5705 5708 5710 5714 5718 5722 5725 5727 5730 5733 5735 5736 5736 5737 5740 5743 5747 5750 5753 5756 5759 5762 5764 5767 5770 5774 5777 5781 5784 5787 5790 5794 5797 5799 5802 5806 5808 5811 5814 5817 5821 5823 5825 5828 5831 5834 5836 5837 5837 5837 5839 5839 5839 5840 5840 5840 5841 5841 5841 5841 5840 5840 5839 5838 5837 5835 5834 5833 5832 5831 5830 5830
5672 5671 5671 5671 5670 5671 5672 5673 5674 5675 5675 5677 5679 5678 5678 5679 5681 5683 5685 5686 5688 5690 5694 5697 5698 5700 5701 5702 5706 5711 5715 5719 5721 5725 5729 5732 5733 5732 5732 5734 5737 5740 5741 5744 5749 5753 5756 5759 5762 5765 5769 5772 5776 5779 5782 5786 5789 5792 5795 5798 5800 5803 5805 5809 5813 5816 5819 5821 5824 5827 5829 5831 5833 5833 5834 5835 5836 5836 5837 5837 5837 5838 5839 5839 5838 5838 5838 5837 5837 5835 5834 5832 5831 5830 5829 5828 5828
5672 5672 5671 5670 5670 5670 5671 5671 5672 5672 5671 5672 5675 5674 5675 5676 5676 5680 5682 5683 5685 5686 5688 5691 5692 5695 5697 5698 5700 5704 5707 5711 5714 5718 5723 5726 5726 5725 5726 5727 5729 5732 5733 5737 5743 5747 5751 5754 5757 5760 5764 5767 5770 5774 5778 5781 5784 5788 5791 5793 5796 5798 5801 5804 5808 5812 5814 5817 5819 5822 5824 5827 5828 5829 5830 5831 5832 5833 5833 5834 5834 5835 5836 5836 5836 5835 5835 5835 5835 5833 5832 5830 5829 5828 5827 5826 5826
5672 5672 5671 5671 5670 5670 5669 5669 5670 5670 5667 5668 5670 5671 5671 5672 5673 5676 5679 5679 5680 5681 5682 5684 5686 5689 5691 5693 5695 5697 5699 5702 5706 5709 5713 5716 5717 5718 5720 5720 5721 5724 5727 5731 5737 5742 5746 5750 5752 5755 5758 5761 5765 5769 5772 5775 5779 5783 5786 5789 5791 5794 5797 5801 5804 5808 5809 5811 5814 5817 5820 5822 5824 5825 5826 5828 5829 5829 5830 5831 5831 5832 5833 5833 5833 5833 5832 5832 5832 5831 5830 5828 5827 5826 5825 5824 5824
5673 5672 5671 5671 5670 5669 5668 5668 5668 5668 5666 5665 5666 5667 5667 5668 5670 5672 5674 5674 5675 5675 5676 5677 5679 5681 5684 5686 5688 5688 5690 5692 5695 5700 5705 5709 5711 5713 5715 5714 5714 5716 5719 5723 5729 5734 5740 5744 5747 5750 5753 5756 5760 5763 5766 5769 5773 5778 5781 5784 5787 5789 5793 5796 5800 5802 5804 5807 5809 5812 5815 5817 5819 5820 5822 5824 5825 5826 5827 5827 5828 5829 5830 5830 5830 5830 5830 5830 5830 5829 5828 5826 5825 5824 5823 5822 5822
5673 5672 5671 5670 5669 5668 5667 5667 5666 5665 5664 5663 5662 5662 5663 5666 5668 5668 5669 5670 5670 5671 5671 5672 5672 5673 5675 5678 5678 5679 5680 5681 5685 5692 5698 5702 5704 5705 5707 5706 5707 5709 5710 5715 5721 5726 5732 5737 5741 5745 5748 5751 5753 5756 5760 5763 5767 5771 5774 5778 5781 5784 5787 5791 5794 5797 5799 5802 5805 5807 5810 5812 5814 5816 5818 5819 5820 5822 5823 5824 5825 5826 5827 5827 5826 5826 5827 5827 5827 5826 5825 5824 5823 5822 5821 5820 5819
5672 5671 5671 5670 5668 5667 5666 5666 5665 5664 5662 5662 5661 5659 5660 5663 5664 5664 5665 5666 5667 5668 5668 5668 5669 5670 5671 5672 5671 5672 5673 5674 5679 5685 5690 5693 5695 5697 5698 5698 5701 5703 5705 5709 5714 5719 5724 5729 5733 5737 5740 5743 5746 5750 5754 5757 5760 5764 5768 5771 5775 5778 5781 5784 5788 5791 5793 5796 5799 5801 5804 5807 5809 5812 5813 5814 5816 5818 5819 5820 5821 5822 5823 5824 5823 5823 5824 5824 5824 5824 5823 5822 5821 5820 5819 5818 5817
5671 5670 5670 5669 5667 5666 5665 5665 5665 5663 5661 5660 5660 5659 5659 5660 5660 5660 5661 5663 5664 5665 5665 5665 5666 5668 5669 5667 5667 5668 5669 5670 5673 5677 5680 5683 5686 5689 5691 5693 5695 5698 5702 5706 5710 5715 5720 5722 5724 5727 5731 5735 5740 5743 5747 5751 5754 5757 5761 5765 5769 5772 5775 5779 5781 5784 5787 5790 5793 5796 5799 5802 5804 5807 5809 5810 5812 5813 5815 5816 5817 5818 5819 5820 5820 5820 5820 5821 5821 5821 5820 5819 5818 5817 5816 5815 5814